Regional Weather Roundup
Issued by NWS

Home | Current Version | Previous Version | Text Only | Print | Product List | Glossary On
Versions: 1 2 3 4 5 6 7 8 9 10 11 12 13 14 15 16 17 18 19 20 21 22 23 24 25 26 27 28 29 30 31 32 33 34 35 36 37 38 39 40 41 42 43 44 45 46 47 48 49 50
000
ASUS43 KDTX 210210
RWRMI
MICHIGAN HOURLY REGIONAL WEATHER ROUNDUP
NATIONAL WEATHER SERVICE DETROIT/PONTIAC MI
1000 PM EDT FRI APR 20 2018

NOTE: "FAIR" INDICATES FEW OR NO CLOUDS BELOW 12,000 FEET WITH NO
SIGNIFICANT WEATHER AND/OR OBSTRUCTION TO VISIBILITY.

MIZ047>049-052>055-059>063-066>070-074>076-081>083-210300-
SOUTHEAST LOWER MICHIGAN

CITY           SKY/WX    TMP DP  RH WIND       PRES   REMARKS
ADRIAN         FAIR      46  25  43 E8        30.44R
ALMA           FAIR      43  34  70 CALM      30.43R
ANN ARBOR      FAIR      44  27  51 CALM      30.44R
BAD AXE        FAIR      40  23  51 SE3       30.45S
CARO           FAIR      42  27  55 E8        30.44R
DETROIT CITY   FAIR      42  28  57 E6        30.47R
DETROIT        FAIR      46  28  49 E5        30.46R
FLINT          FAIR      46  16  30 S5        30.44R
GROSSE ILE     FAIR      43  30  61 CALM      30.45S
HILLSDALE      FAIR      41  19  42 E3        30.41S
HOWELL         FAIR      44  19  38 SE5       30.43S

CITY           SKY/WX    TMP DP  RH WIND       PRES   REMARKS
JACKSON        FAIR      46  20  35 CALM      30.43R
LAMBERTVILLE   FAIR      45  29  53 SE3       30.45R
LANSING        FAIR      46  24  42 CALM      30.43R
LAPEER         FAIR      40  28  62 SE5       30.45R HAZE
MASON          FAIR      45  24  44 SE3       30.43S
MONROE         FAIR      41  26  55 CALM      30.45R
MT. CLEMENS    CLEAR     37  29  72 E5        30.46R WCI  34
PONTIAC        FAIR      45  27  49 SE7       30.44R
PORT HOPE        N/A     34  26  72 S3        30.43F
PORT HURON     FAIR      32  23  69 CALM      30.47S
TRI CITIES     FAIR      40  32  73 N8        30.44R WCI  34
MIDLAND        FAIR      40  26  57 CALM      30.43R
TROY           FAIR      46  26  47 E3        30.48R
SAGINAW HB     FAIR      45  28  53 SE3       30.43R
$$
MIZ043>046-050>051-056>058-064>065-071>073-077>080-210300-
SOUTHWEST LOWER MICHIGAN

CITY           SKY/WX    TMP DP  RH WIND       PRES   REMARKS
BATTLE CREEK   FAIR      47  24  40 NW6       30.44R
BENTON HARBOR  FAIR      38  17  42 CALM      30.45R
BIG RAPIDS     FAIR      44  10  24 NW5       30.44R
COLDWATER      FAIR      46  17  31 CALM      30.42S
FREMONT        FAIR      41   9  27 CALM      30.45R
HOLLAND        FAIR      40  23  50 CALM      30.45S
GRAND RAPIDS   FAIR      47  20  34 NW7       30.44R
IONIA          FAIR      49  22  34 W5        30.43R
KALAMAZOO      FAIR      46  21  37 N6        30.44R
LUDINGTON      FAIR      34  28  78 CALM      30.45S
MARSHALL       FAIR      43  21  41 CALM      30.42S
MOUNT PLEASANT FAIR      44  30  57 CALM      30.42R
MUSKEGON       FAIR      39  16  39 CALM      30.46R
SOUTH HAVEN    FAIR      38  16  40 CALM      30.45S
$$
MIZ016>042-210300-
NORTHERN LOWER MICHIGAN

CITY           SKY/WX    TMP DP  RH WIND       PRES   REMARKS
ALPENA         FAIR      32  22  66 CALM      30.45R
BEAVER ISLAND  FAIR      39  23  51 SW7       30.45R WCI  34
BELLAIRE       FAIR      33  20  61 CALM      30.45S
CADILLAC       FAIR      35  15  43 CALM      30.43R
CHARLEVOIX     FAIR      34  21  59 CALM      30.47S
FRANKFORT      FAIR      35  18  50 CALM      30.46R
GAYLORD        FAIR      34  21  59 CALM      30.43R
GRAYLING       FAIR      32  20  62 CALM      30.43R
HARBOR SPRINGS FAIR      36  21  54 CALM      30.44F
HOUGHTON LAKE  FAIR      36  22  56 N3        30.44R
MANISTEE       FAIR      34  23  64 CALM      30.45R
OSCODA         FAIR      31  20  65 CALM      30.45S
PELLSTON       FAIR      34  18  52 CALM      30.44S
ROGERS CITY    FAIR      33  19  56 SW3       30.44S
TRAVERSE CITY  FAIR      36  26  67 CALM      30.44R
$$
MIZ007>008-015-210300-
EASTERN UPPER MICHIGAN

CITY           SKY/WX    TMP DP  RH WIND       PRES   REMARKS
KINROSS        FAIR      41  17  38 W6        30.43R
MACKINAC ISLAN FAIR      40  15  36 W8        30.43F WCI  35
NEWBERRY       FAIR      37  15  39 SW7       30.42R WCI  32
S. S. MARIE    FAIR      41  17  38 NW7       30.41S
MUNISING         N/A     34  24  67 S6        30.42R WCI  29
$$
MIZ004>006-011>014-085-210300-
CENTRAL UPPER MICHIGAN

CITY           SKY/WX    TMP DP  RH WIND       PRES   REMARKS
MANISTIQUE     FAIR      31  29  94 S3        30.44R
ESCANABA       FAIR      40  23  50 SE5       30.43R
MENOMINEE      FAIR      44  17  33 SW3       30.43R
SAWYER-GWINN   CLEAR     45  14  29 NE5       30.41R
$$
MIZ001>003-009>011-084-210300-
WESTERN UPPER MICHIGAN

CITY           SKY/WX    TMP DP  RH WIND       PRES   REMARKS
IRON MOUNTAIN  FAIR      46  18  32 SE6       30.37R
HOUGHTON       FAIR      40  11  30 E6        30.40R
COPPER HARBOR    N/A     38  14  37 CALM      30.41R
IRONWOOD       FAIR      39  21  48 CALM      30.40R
$$

ABBREVIATIONS USED IN REMARKS
   TC - TEMPERATURE IN CELSIUS
  WCI - WIND CHILL INDEX
   HX - HEAT INDEX
  VSB - VISIBILITY





USA.gov is the U.S. government's official web portal to all federal, state and local government web resources and services.